Weather History for Charlottetown, PE

Change the Weather History Date:

Sunday, November 25, 2012

  Actual Average Record
Temperature  
Mean Temperature 36 °F -  
Max Temperature 43 °F 33 °F 61 °F (2014)
Min Temperature 28 °F 19 °F 8 °F (2008)
Degree Days  
Heating Degree Days 30    
Moisture  
Dew Point 28 °F    
Average Humidity 76    
Maximum Humidity 100    
Minimum Humidity 44    
Precipitation  
Precipitation 0.02 in 0.17 in - ()
Sea Level Pressure  
Sea Level Pressure 29.23 in    
Wind  
Wind Speed 12 mph ()    
Max Wind Speed 24 mph    
Max Gust Speed 37 mph    
Visibility 12.4 miles    
Events Fog , Rain    
Averages and records for this station are not official NWS values.
T = Trace of Precipitation, MM = Missing Value Source: Averaged Metar Reports

Daily Weather History Graph

Daily Weather History Graph

Search for Another Location

Airport:

Trip Planner

Search our weather history database for the weather conditions in past years. The results will help you decide how hot, cold, wet, or windy it might be!

Date:

Astronomy

Nov. 25, 2012 Rise Set
Actual Time 7:28 AM AST 4:30 PM AST
Civil Twilight 6:54 AM AST 5:04 PM AST
Nautical Twilight 6:17 AM AST 5:41 PM AST
Astronomical Twilight 5:41 AM AST 6:17 PM AST
Moon 2:51 PM AST (11/25) 4:30 AM AST (11/25)
Length of Visible Light 10h 10m
Length of Day
9h 02m
Waxing Gibbous, 92% of the Moon is Illuminated
Nov 25
Waxing Gibbous
Nov 28
Full
Dec 6
Last Quarter
Dec 13
New
Dec 20
First Quarter

Hourly Weather History & Observations

Time (AST) Temp. Windchill Dew Point Humidity Pressure Visibility Wind Dir Wind Speed Gust Speed Precip Events Conditions
12:00 AM 42.8 °F 41.1 °F 42.8 °F 100% 29.15 in 0.5 mi SSW 3.5 mph - N/A Fog Fog
12:28 AM 42.8 °F 40.1 °F 42.8 °F 100% 29.14 in 0.2 mi SW 4.6 mph - N/A Fog Fog
1:00 AM 42.8 °F 39.3 °F 42.8 °F 100% 29.13 in 0.5 mi SSW 5.8 mph - N/A Fog Fog
1:10 AM 42.8 °F 38.6 °F 42.8 °F 100% 29.12 in 0.6 mi South 6.9 mph - N/A Rain Light Rain Showers
1:33 AM 42.8 °F 39.3 °F 42.8 °F 100% 29.12 in 1.5 mi SSW 5.8 mph - N/A Rain Light Rain Showers
2:00 AM 44 °F - 44 °F 98% 29.12 in 10 mi SW 6.9 mph - - Rain Light Rain Showers
2:00 AM 44.6 °F 39.2 °F 44.6 °F 100% 29.12 in 10.0 mi SW 10.4 mph - N/A Rain Light Rain Showers
3:00 AM 39.2 °F 30.2 °F 39.2 °F 100% 29.14 in 10.0 mi West 17.3 mph - N/A Rain Light Rain Showers
3:42 AM 37.4 °F 27.2 °F 35.6 °F 93% 29.14 in 15.0 mi West 19.6 mph 27.6 mph N/A   Overcast
4:00 AM 37.4 °F 28.5 °F 35.6 °F 93% 29.16 in 15.0 mi WSW 15.0 mph 31.1 mph N/A   Overcast
4:39 AM 35.6 °F 25.9 °F 33.8 °F 93% 29.16 in 15.0 mi WSW 16.1 mph 25.3 mph N/A   Overcast
5:00 AM 35.6 °F 25.2 °F 32.0 °F 87% 29.16 in 15.0 mi WSW 18.4 mph 25.3 mph N/A   Overcast
6:00 AM 33.8 °F 23.9 °F 30.2 °F 87% 29.18 in 15.0 mi WSW 15.0 mph 24.2 mph N/A   Overcast
7:00 AM 33.8 °F 23.9 °F 28.4 °F 81% 29.19 in 15.0 mi WSW 15.0 mph - N/A   Mostly Cloudy
8:00 AM 32 °F - 27 °F 74% 29.21 in 15 mi WSW 13.8 mph - -   Partly Cloudy
8:00 AM 32.0 °F 21.2 °F 26.6 °F 80% 29.21 in 15.0 mi WSW 16.1 mph 25.3 mph N/A   Mostly Cloudy
9:00 AM 32.0 °F 20.1 °F 26.6 °F 80% 29.22 in 15.0 mi WSW 19.6 mph 27.6 mph N/A   Overcast
10:00 AM 32.0 °F 19.5 °F 24.8 °F 75% 29.23 in 15.0 mi WSW 21.9 mph 31.1 mph N/A   Overcast
11:00 AM 32.0 °F 20.8 °F 24.8 °F 75% 29.22 in 15.0 mi WSW 17.3 mph 26.5 mph N/A   Mostly Cloudy
12:00 PM 32.0 °F 19.2 °F 23.0 °F 69% 29.22 in 15.0 mi WSW 23.0 mph 36.8 mph N/A   Mostly Cloudy
1:00 PM 32.0 °F 20.1 °F 21.2 °F 64% 29.22 in 15.0 mi SW 19.6 mph 32.2 mph N/A   Mostly Cloudy
2:00 PM 34 °F - 20 °F 44% 29.24 in 15 mi WSW 20.7 mph - -   Partly Cloudy
2:00 PM 33.8 °F 21.9 °F 19.4 °F 56% 29.24 in 15.0 mi WSW 21.9 mph 34.5 mph N/A   Mostly Cloudy
3:00 PM 32.0 °F 18.9 °F 17.6 °F 55% 29.25 in 15.0 mi WSW 24.2 mph 33.4 mph N/A   Mostly Cloudy
4:00 PM 32.0 °F 20.1 °F 17.6 °F 55% 29.27 in 15.0 mi WSW 19.6 mph 31.1 mph N/A   Mostly Cloudy
5:00 PM 32.0 °F 20.1 °F 17.6 °F 55% 29.30 in 15.0 mi WSW 19.6 mph 29.9 mph N/A   Mostly Cloudy
6:00 PM 30.2 °F 18.5 °F 17.6 °F 60% 29.34 in 15.0 mi WSW 17.3 mph 25.3 mph N/A   Mostly Cloudy
7:00 PM 30.2 °F 18.1 °F 17.6 °F 60% 29.36 in 15.0 mi WSW 18.4 mph 31.1 mph N/A   Mostly Cloudy
8:00 PM 29 °F - 17 °F 47% 29.38 in 15 mi WSW 13.8 mph - -   Scattered Clouds
8:00 PM 28.4 °F 18.5 °F 15.8 °F 59% 29.38 in 15.0 mi WSW 11.5 mph 24.2 mph N/A   Partly Cloudy
9:00 PM 30.2 °F 19.3 °F 17.6 °F 60% 29.40 in 15.0 mi WSW 15.0 mph 25.3 mph N/A   Mostly Cloudy
10:00 PM 30.2 °F 18.5 °F 15.8 °F 55% 29.43 in 15.0 mi WSW 17.3 mph 29.9 mph N/A   Overcast
11:00 PM 28.4 °F 14.1 °F 15.8 °F 59% 29.44 in 15.0 mi WSW 24.2 mph 34.5 mph N/A   Mostly Cloudy